Year,Month,Day,Hour,Minute,Value (Times are PST for temperature in C)
2014,05,14,00,00,16.90
2014,05,14,00,01,16.90
2014,05,14,00,02,16.90
2014,05,14,00,03,16.90
2014,05,14,00,04,16.90
2014,05,14,00,05,16.80
2014,05,14,00,06,16.80
2014,05,14,00,07,16.80
2014,05,14,00,08,16.70
2014,05,14,00,09,16.70
2014,05,14,00,10,16.60
2014,05,14,00,11,16.60
2014,05,14,00,12,16.60
2014,05,14,00,13,16.50
2014,05,14,00,14,16.40
2014,05,14,00,15,16.40
2014,05,14,00,16,16.30
2014,05,14,00,17,16.20
2014,05,14,00,18,16.10
2014,05,14,00,19,15.90
2014,05,14,00,20,15.80
2014,05,14,00,21,15.70
2014,05,14,00,22,15.60
2014,05,14,00,23,15.50
2014,05,14,00,24,15.40
2014,05,14,00,25,15.30
2014,05,14,00,26,15.20
2014,05,14,00,27,15.10
2014,05,14,00,28,15.10
2014,05,14,00,29,15.00
2014,05,14,00,30,15.00
2014,05,14,00,31,14.90
2014,05,14,00,32,14.90
2014,05,14,00,33,14.80
2014,05,14,00,34,14.80
2014,05,14,00,35,14.80
2014,05,14,00,36,14.80
2014,05,14,00,37,14.70
2014,05,14,00,38,14.70
2014,05,14,00,39,14.70
2014,05,14,00,40,14.80
2014,05,14,00,41,14.80
2014,05,14,00,42,14.80
2014,05,14,00,43,14.80
2014,05,14,00,44,14.80
2014,05,14,00,45,14.80
2014,05,14,00,46,14.80
2014,05,14,00,47,14.80
2014,05,14,00,48,14.80
2014,05,14,00,49,14.80
2014,05,14,00,50,14.70
2014,05,14,00,51,14.70
2014,05,14,00,52,14.70
2014,05,14,00,53,14.70
2014,05,14,00,54,14.70
2014,05,14,00,55,14.70
2014,05,14,00,56,14.70
2014,05,14,00,57,14.70
2014,05,14,00,58,14.60
2014,05,14,00,59,14.60
2014,05,14,01,00,14.60
2014,05,14,01,01,14.60
2014,05,14,01,02,14.60
2014,05,14,01,03,14.60
2014,05,14,01,04,14.60
2014,05,14,01,05,14.60
2014,05,14,01,06,14.60
2014,05,14,01,07,14.60
2014,05,14,01,08,14.60
2014,05,14,01,09,14.60
2014,05,14,01,10,14.70
2014,05,14,01,11,14.70
2014,05,14,01,12,14.80
2014,05,14,01,13,14.80
2014,05,14,01,14,14.90
2014,05,14,01,15,14.90
2014,05,14,01,16,15.00
2014,05,14,01,17,15.00
2014,05,14,01,18,15.10
2014,05,14,01,19,15.10
2014,05,14,01,20,15.10
2014,05,14,01,21,15.20
2014,05,14,01,22,15.20
2014,05,14,01,23,15.20
2014,05,14,01,24,15.20
2014,05,14,01,25,15.20
2014,05,14,01,26,15.30
2014,05,14,01,27,15.30
2014,05,14,01,28,15.30
2014,05,14,01,29,15.40
2014,05,14,01,30,15.40
2014,05,14,01,31,15.40
2014,05,14,01,32,15.40
2014,05,14,01,33,15.40
2014,05,14,01,34,15.40
2014,05,14,01,35,15.40
2014,05,14,01,36,15.30
2014,05,14,01,37,15.30
2014,05,14,01,38,15.30
2014,05,14,01,39,15.30
2014,05,14,01,40,15.30
2014,05,14,01,41,15.20
2014,05,14,01,42,15.20
2014,05,14,01,43,15.20
2014,05,14,01,44,15.10
2014,05,14,01,45,15.10
2014,05,14,01,46,15.10
2014,05,14,01,47,15.00
2014,05,14,01,48,15.00
2014,05,14,01,49,15.00
2014,05,14,01,50,15.00
2014,05,14,01,51,15.00
2014,05,14,01,52,15.00
2014,05,14,01,53,15.00
2014,05,14,01,54,15.00
2014,05,14,01,55,15.00
2014,05,14,01,56,15.00
2014,05,14,01,57,14.90
2014,05,14,01,58,14.90
2014,05,14,01,59,14.90
2014,05,14,02,00,14.80
2014,05,14,02,01,14.80
2014,05,14,02,02,14.80
2014,05,14,02,03,14.70
2014,05,14,02,04,14.70
2014,05,14,02,05,14.70
2014,05,14,02,06,14.60
2014,05,14,02,07,14.60
2014,05,14,02,08,14.60
2014,05,14,02,09,14.60
2014,05,14,02,10,14.60
2014,05,14,02,11,14.60
2014,05,14,02,12,14.60
2014,05,14,02,13,14.60
2014,05,14,02,14,14.60
2014,05,14,02,15,14.60
2014,05,14,02,16,14.60
2014,05,14,02,17,14.70
2014,05,14,02,18,14.70
2014,05,14,02,19,14.80
2014,05,14,02,20,14.90
2014,05,14,02,21,15.00
2014,05,14,02,22,15.10
2014,05,14,02,23,15.20
2014,05,14,02,24,15.30
2014,05,14,02,25,15.30
2014,05,14,02,26,15.40
2014,05,14,02,27,15.40
2014,05,14,02,28,15.40
2014,05,14,02,29,15.50
2014,05,14,02,30,15.50
2014,05,14,02,31,15.50
2014,05,14,02,32,15.50
2014,05,14,02,33,15.50
2014,05,14,02,34,15.50
2014,05,14,02,35,15.50
2014,05,14,02,36,15.40
2014,05,14,02,37,15.40
2014,05,14,02,38,15.30
2014,05,14,02,39,15.30
2014,05,14,02,40,15.20
2014,05,14,02,41,15.20
2014,05,14,02,42,15.10
2014,05,14,02,43,15.00
2014,05,14,02,44,14.90
2014,05,14,02,45,14.80
2014,05,14,02,46,14.70
2014,05,14,02,47,14.60
2014,05,14,02,48,14.50
2014,05,14,02,49,14.40
2014,05,14,02,50,14.40
2014,05,14,02,51,14.30
2014,05,14,02,52,14.30
2014,05,14,02,53,14.30
2014,05,14,02,54,14.20
2014,05,14,02,55,14.20
2014,05,14,02,56,14.10
2014,05,14,02,57,14.10
2014,05,14,02,58,14.00
2014,05,14,02,59,14.00
2014,05,14,03,00,13.90
2014,05,14,03,01,13.90
2014,05,14,03,02,13.90
2014,05,14,03,03,13.90
2014,05,14,03,04,13.80
2014,05,14,03,05,13.80
2014,05,14,03,06,13.80
2014,05,14,03,07,13.80
2014,05,14,03,08,13.80
2014,05,14,03,09,13.80
2014,05,14,03,10,13.70
2014,05,14,03,11,13.70
2014,05,14,03,12,13.70
2014,05,14,03,13,13.70
2014,05,14,03,14,13.70
2014,05,14,03,15,13.70
2014,05,14,03,16,13.70
2014,05,14,03,17,13.70
2014,05,14,03,18,13.60
2014,05,14,03,19,13.60
2014,05,14,03,20,13.60
2014,05,14,03,21,13.60
2014,05,14,03,22,13.60
2014,05,14,03,23,13.60
2014,05,14,03,24,13.60
2014,05,14,03,25,13.50
2014,05,14,03,26,13.50
2014,05,14,03,27,13.40
2014,05,14,03,28,13.40
2014,05,14,03,29,13.40
2014,05,14,03,30,13.40
2014,05,14,03,31,13.30
2014,05,14,03,32,13.30
2014,05,14,03,33,13.30
2014,05,14,03,34,13.30
2014,05,14,03,35,13.20
2014,05,14,03,36,13.20
2014,05,14,03,37,13.20
2014,05,14,03,38,13.20
2014,05,14,03,39,13.20
2014,05,14,03,40,13.10
2014,05,14,03,41,13.10
2014,05,14,03,42,13.10
2014,05,14,03,43,13.00
2014,05,14,03,44,13.00
2014,05,14,03,45,13.00
2014,05,14,03,46,12.90
2014,05,14,03,47,12.90
2014,05,14,03,48,12.90
2014,05,14,03,49,12.90
2014,05,14,03,50,12.90
2014,05,14,03,51,12.90
2014,05,14,03,52,12.90
2014,05,14,03,53,12.90
2014,05,14,03,54,12.90
2014,05,14,03,55,12.80
2014,05,14,03,56,12.90
2014,05,14,03,57,12.90
2014,05,14,03,58,12.90
2014,05,14,03,59,12.90
2014,05,14,04,00,13.00
2014,05,14,04,01,13.00
2014,05,14,04,02,13.00
2014,05,14,04,03,13.10
2014,05,14,04,04,13.10
2014,05,14,04,05,13.10
2014,05,14,04,06,13.10
2014,05,14,04,07,13.10
2014,05,14,04,08,13.10
2014,05,14,04,09,13.10
2014,05,14,04,10,13.10
2014,05,14,04,11,13.10
2014,05,14,04,12,13.10
2014,05,14,04,13,13.10
2014,05,14,04,14,13.10
2014,05,14,04,15,13.20
2014,05,14,04,16,13.20
2014,05,14,04,17,13.20
2014,05,14,04,18,13.20
2014,05,14,04,19,13.30
2014,05,14,04,20,13.30
2014,05,14,04,21,13.30
2014,05,14,04,22,13.40
2014,05,14,04,23,13.40
2014,05,14,04,24,13.40
2014,05,14,04,25,13.40
2014,05,14,04,26,13.40
2014,05,14,04,27,13.40
2014,05,14,04,28,13.40
2014,05,14,04,29,13.40
2014,05,14,04,30,13.40
2014,05,14,04,31,13.40
2014,05,14,04,32,13.40
2014,05,14,04,33,13.40
2014,05,14,04,34,13.40
2014,05,14,04,35,13.40
2014,05,14,04,36,13.30
2014,05,14,04,37,13.30
2014,05,14,04,38,13.20
2014,05,14,04,39,13.20
2014,05,14,04,40,13.20
2014,05,14,04,41,13.10
2014,05,14,04,42,13.10
2014,05,14,04,43,13.10
2014,05,14,04,44,13.10
2014,05,14,04,45,13.20
2014,05,14,04,46,13.30
2014,05,14,04,47,13.40
2014,05,14,04,48,13.50
2014,05,14,04,49,13.60
2014,05,14,04,50,13.70
2014,05,14,04,51,13.70
2014,05,14,04,52,13.80
2014,05,14,04,53,13.80
2014,05,14,04,54,13.80
2014,05,14,04,55,13.80
2014,05,14,04,56,13.80
2014,05,14,04,57,13.80
2014,05,14,04,58,13.80
2014,05,14,04,59,13.80
2014,05,14,05,00,13.80
2014,05,14,05,01,13.80
2014,05,14,05,02,13.80
2014,05,14,05,03,13.70
2014,05,14,05,04,13.70
2014,05,14,05,05,13.70
2014,05,14,05,06,13.60
2014,05,14,05,07,13.60
2014,05,14,05,08,13.50
2014,05,14,05,09,13.40
2014,05,14,05,10,13.40
2014,05,14,05,11,13.30
2014,05,14,05,12,13.20
2014,05,14,05,13,13.20
2014,05,14,05,14,13.10
2014,05,14,05,15,13.00
2014,05,14,05,16,12.90
2014,05,14,05,17,12.80
2014,05,14,05,18,12.80
2014,05,14,05,19,12.80
2014,05,14,05,20,12.70
2014,05,14,05,21,12.70
2014,05,14,05,22,12.60
2014,05,14,05,23,12.60
2014,05,14,05,24,12.50
2014,05,14,05,25,12.50
2014,05,14,05,26,12.40
2014,05,14,05,27,12.40
2014,05,14,05,28,12.30
2014,05,14,05,29,12.30
2014,05,14,05,30,12.30
2014,05,14,05,31,12.20
2014,05,14,05,32,12.20
2014,05,14,05,33,12.20
2014,05,14,05,34,12.20
2014,05,14,05,35,12.20
2014,05,14,05,36,12.20
2014,05,14,05,37,12.20
2014,05,14,05,38,12.20
2014,05,14,05,39,12.20
2014,05,14,05,40,12.20
2014,05,14,05,41,12.20
2014,05,14,05,42,12.20
2014,05,14,05,43,12.20
2014,05,14,05,44,12.20
2014,05,14,05,45,12.10
2014,05,14,05,46,12.20
2014,05,14,05,47,12.20
2014,05,14,05,48,12.20
2014,05,14,05,49,12.20
2014,05,14,05,50,12.20
2014,05,14,05,51,12.20
2014,05,14,05,52,12.20
2014,05,14,05,53,12.20
2014,05,14,05,54,12.20
2014,05,14,05,55,12.20
2014,05,14,05,56,12.20
2014,05,14,05,57,12.20
2014,05,14,05,58,12.20
2014,05,14,05,59,12.20
2014,05,14,06,00,12.20
2014,05,14,06,01,12.20
2014,05,14,06,02,12.20
2014,05,14,06,03,12.20
2014,05,14,06,04,12.30
2014,05,14,06,05,12.30
2014,05,14,06,06,12.30
2014,05,14,06,07,12.30
2014,05,14,06,08,12.30
2014,05,14,06,09,12.30
2014,05,14,06,10,12.30
2014,05,14,06,11,12.30
2014,05,14,06,12,12.30
2014,05,14,06,13,12.30
2014,05,14,06,14,12.30
2014,05,14,06,15,12.30
2014,05,14,06,16,12.30
2014,05,14,06,17,12.40
2014,05,14,06,18,12.40
2014,05,14,06,19,12.40
2014,05,14,06,20,12.40
2014,05,14,06,21,12.40
2014,05,14,06,22,12.50
2014,05,14,06,23,12.50
2014,05,14,06,24,12.50
2014,05,14,06,25,12.60
2014,05,14,06,26,12.60
2014,05,14,06,27,12.60
2014,05,14,06,28,12.60
2014,05,14,06,29,12.60
2014,05,14,06,30,12.60
2014,05,14,06,31,12.70
2014,05,14,06,32,12.70
2014,05,14,06,33,12.70
2014,05,14,06,34,12.70
2014,05,14,06,35,12.70
2014,05,14,06,36,12.70
2014,05,14,06,37,12.70
2014,05,14,06,38,12.80
2014,05,14,06,39,12.80
2014,05,14,06,40,12.80
2014,05,14,06,41,12.80
2014,05,14,06,42,12.80
2014,05,14,06,43,12.80
2014,05,14,06,44,12.90
2014,05,14,06,45,12.90
2014,05,14,06,46,12.90
2014,05,14,06,47,12.90
2014,05,14,06,48,12.90
2014,05,14,06,49,13.00
2014,05,14,06,50,13.00
2014,05,14,06,51,13.00
2014,05,14,06,52,13.10
2014,05,14,06,53,13.10
2014,05,14,06,54,13.10
2014,05,14,06,55,13.10
2014,05,14,06,56,13.20
2014,05,14,06,57,13.20
2014,05,14,06,58,13.20
2014,05,14,06,59,13.20
2014,05,14,07,00,13.30
2014,05,14,07,01,13.30
2014,05,14,07,02,13.30
2014,05,14,07,03,13.30
2014,05,14,07,04,13.40
2014,05,14,07,05,13.40
2014,05,14,07,06,13.40
2014,05,14,07,07,13.40
2014,05,14,07,08,13.40
2014,05,14,07,09,13.40
2014,05,14,07,10,13.50
2014,05,14,07,11,13.50
2014,05,14,07,12,13.50
2014,05,14,07,13,13.50
2014,05,14,07,14,13.50
2014,05,14,07,15,13.50
2014,05,14,07,16,13.60
2014,05,14,07,17,13.60
2014,05,14,07,18,13.60
2014,05,14,07,19,13.60
2014,05,14,07,20,13.60
2014,05,14,07,21,13.70
2014,05,14,07,22,13.70
2014,05,14,07,23,13.70
2014,05,14,07,24,13.70
2014,05,14,07,25,13.70
2014,05,14,07,26,13.80
2014,05,14,07,27,13.80
2014,05,14,07,28,13.80
2014,05,14,07,29,13.80
2014,05,14,07,30,13.80
2014,05,14,07,31,13.80
2014,05,14,07,32,13.90
2014,05,14,07,33,13.90
2014,05,14,07,34,13.90
2014,05,14,07,35,14.00
2014,05,14,07,36,14.00
2014,05,14,07,37,14.00
2014,05,14,07,38,14.10
2014,05,14,07,39,14.10
2014,05,14,07,40,14.20
2014,05,14,07,41,14.20
2014,05,14,07,42,14.20
2014,05,14,07,43,14.30
2014,05,14,07,44,14.30
2014,05,14,07,45,14.40
2014,05,14,07,46,14.50
2014,05,14,07,47,14.50
2014,05,14,07,48,14.60
2014,05,14,07,49,14.70
2014,05,14,07,50,14.70
2014,05,14,07,51,14.80
2014,05,14,07,52,14.80
2014,05,14,07,53,14.90
2014,05,14,07,54,15.00
2014,05,14,07,55,15.00
2014,05,14,07,56,15.10
2014,05,14,07,57,15.20
2014,05,14,07,58,15.20
2014,05,14,07,59,15.30
2014,05,14,08,00,15.30
2014,05,14,08,01,15.40
2014,05,14,08,02,15.50
2014,05,14,08,03,15.60
2014,05,14,08,04,15.60
2014,05,14,08,05,15.70
2014,05,14,08,06,15.80
2014,05,14,08,07,15.80
2014,05,14,08,08,15.90
2014,05,14,08,09,16.00
2014,05,14,08,10,16.00
2014,05,14,08,11,16.10
2014,05,14,08,12,16.10
2014,05,14,08,13,16.20
2014,05,14,08,14,16.30
2014,05,14,08,15,16.30
2014,05,14,08,16,16.30
2014,05,14,08,17,16.40
2014,05,14,08,18,16.40
2014,05,14,08,19,16.50
2014,05,14,08,20,16.60
2014,05,14,08,21,16.60
2014,05,14,08,22,16.60
2014,05,14,08,23,16.70
2014,05,14,08,24,16.70
2014,05,14,08,25,16.70
2014,05,14,08,26,16.70
2014,05,14,08,27,16.70
2014,05,14,08,28,16.70
2014,05,14,08,29,16.70
2014,05,14,08,30,16.80
2014,05,14,08,31,16.80
2014,05,14,08,32,16.80
2014,05,14,08,33,16.80
2014,05,14,08,34,16.80
2014,05,14,08,35,16.80
2014,05,14,08,36,16.80
2014,05,14,08,37,16.80
2014,05,14,08,38,16.80
2014,05,14,08,39,16.80
2014,05,14,08,40,16.80
2014,05,14,08,41,16.80
2014,05,14,08,42,16.80
2014,05,14,08,43,16.80
2014,05,14,08,44,16.80
2014,05,14,08,45,16.80
2014,05,14,08,46,16.80
2014,05,14,08,47,16.80
2014,05,14,08,48,16.80
2014,05,14,08,49,16.90
2014,05,14,08,50,16.90
2014,05,14,08,51,16.90
2014,05,14,08,52,16.90
2014,05,14,08,53,17.00
2014,05,14,08,54,17.00
2014,05,14,08,55,17.10
2014,05,14,08,56,17.10
2014,05,14,08,57,17.20
2014,05,14,08,58,17.20
2014,05,14,08,59,17.20
2014,05,14,09,00,17.30
2014,05,14,09,01,17.30
2014,05,14,09,02,17.30
2014,05,14,09,03,17.30
2014,05,14,09,04,17.30
2014,05,14,09,05,17.30
2014,05,14,09,06,17.30
2014,05,14,09,07,17.30
2014,05,14,09,08,17.30
2014,05,14,09,09,17.40
2014,05,14,09,10,17.40
2014,05,14,09,11,17.40
2014,05,14,09,12,17.40
2014,05,14,09,13,17.50
2014,05,14,09,14,17.50
2014,05,14,09,15,17.50
2014,05,14,09,16,17.50
2014,05,14,09,17,17.50
2014,05,14,09,18,17.50
2014,05,14,09,19,17.50
2014,05,14,09,20,17.50
2014,05,14,09,21,17.50
2014,05,14,09,22,17.50
2014,05,14,09,23,17.50
2014,05,14,09,24,17.50
2014,05,14,09,25,17.60
2014,05,14,09,26,17.60
2014,05,14,09,27,17.60
2014,05,14,09,28,17.60
2014,05,14,09,29,17.60
2014,05,14,09,30,17.60
2014,05,14,09,31,17.60
2014,05,14,09,32,17.60
2014,05,14,09,33,17.60
2014,05,14,09,34,17.60
2014,05,14,09,35,17.60
2014,05,14,09,36,17.60
2014,05,14,09,37,17.70
2014,05,14,09,38,17.70
2014,05,14,09,39,17.80
2014,05,14,09,40,17.80
2014,05,14,09,41,17.90
2014,05,14,09,42,17.90
2014,05,14,09,43,17.90
2014,05,14,09,44,18.00
2014,05,14,09,45,18.00
2014,05,14,09,46,18.00
2014,05,14,09,47,18.00
2014,05,14,09,48,17.90
2014,05,14,09,49,17.90
2014,05,14,09,50,17.90
2014,05,14,09,51,17.90
2014,05,14,09,52,17.90
2014,05,14,09,53,17.90
2014,05,14,09,54,17.90
2014,05,14,09,55,17.90
2014,05,14,09,56,17.90
2014,05,14,09,57,18.00
2014,05,14,09,58,17.90
2014,05,14,09,59,18.00
2014,05,14,10,00,18.00
2014,05,14,10,01,18.00
2014,05,14,10,02,18.00
2014,05,14,10,03,18.10
2014,05,14,10,04,18.10
2014,05,14,10,05,18.10
2014,05,14,10,06,18.10
2014,05,14,10,07,18.10
2014,05,14,10,08,18.10
2014,05,14,10,09,18.10
2014,05,14,10,10,18.10
2014,05,14,10,11,18.10
2014,05,14,10,12,18.10
2014,05,14,10,13,18.10
2014,05,14,10,14,18.10
2014,05,14,10,15,18.10
2014,05,14,10,16,18.10
2014,05,14,10,17,18.20
2014,05,14,10,18,18.20
2014,05,14,10,19,18.20
2014,05,14,10,20,18.30
2014,05,14,10,21,18.30
2014,05,14,10,22,18.30
2014,05,14,10,23,18.40
2014,05,14,10,24,18.50
2014,05,14,10,25,18.50
2014,05,14,10,26,18.60
2014,05,14,10,27,18.60
2014,05,14,10,28,18.60
2014,05,14,10,29,18.60
2014,05,14,10,30,18.60
2014,05,14,10,31,18.60
2014,05,14,10,32,18.60
2014,05,14,10,33,18.70
2014,05,14,10,34,18.70
2014,05,14,10,35,18.70
2014,05,14,10,36,18.70
2014,05,14,10,37,18.70
2014,05,14,10,38,18.70
2014,05,14,10,39,18.70
2014,05,14,10,40,18.70
2014,05,14,10,41,18.70
2014,05,14,10,42,18.80
2014,05,14,10,43,18.80
2014,05,14,10,44,18.80
2014,05,14,10,45,18.90
2014,05,14,10,46,18.90
2014,05,14,10,47,18.90
2014,05,14,10,48,18.90
2014,05,14,10,49,18.90
2014,05,14,10,50,18.90
2014,05,14,10,51,18.90
2014,05,14,10,52,18.90
2014,05,14,10,53,18.90
2014,05,14,10,54,18.90
2014,05,14,10,55,18.90
2014,05,14,10,56,18.90
2014,05,14,10,57,18.90
2014,05,14,10,58,19.00
2014,05,14,10,59,19.00
2014,05,14,11,00,19.00
2014,05,14,11,01,19.00
2014,05,14,11,02,19.00
2014,05,14,11,03,19.00
2014,05,14,11,04,19.00
2014,05,14,11,05,19.00
2014,05,14,11,06,19.00
2014,05,14,11,07,19.00
2014,05,14,11,08,19.10
2014,05,14,11,09,19.10
2014,05,14,11,10,19.20
2014,05,14,11,11,19.30
2014,05,14,11,12,19.40
2014,05,14,11,13,19.50
2014,05,14,11,14,19.60
2014,05,14,11,15,19.60
2014,05,14,11,16,19.60
2014,05,14,11,17,19.60
2014,05,14,11,18,19.70
2014,05,14,11,19,19.70
2014,05,14,11,20,19.80
2014,05,14,11,21,19.80
2014,05,14,11,22,19.80
2014,05,14,11,23,19.80
2014,05,14,11,24,19.80
2014,05,14,11,25,19.80
2014,05,14,11,26,19.80
2014,05,14,11,27,19.80
2014,05,14,11,28,19.80
2014,05,14,11,29,19.80
2014,05,14,11,30,19.90
2014,05,14,11,31,19.90
2014,05,14,11,32,19.90
2014,05,14,11,33,19.90
2014,05,14,11,34,19.90
2014,05,14,11,35,19.90
2014,05,14,11,36,19.80
2014,05,14,11,37,19.80
2014,05,14,11,38,19.80
2014,05,14,11,39,19.90
2014,05,14,11,40,19.90
2014,05,14,11,41,19.90
2014,05,14,11,42,19.90
2014,05,14,11,43,19.90
2014,05,14,11,44,19.90
2014,05,14,11,45,19.90
2014,05,14,11,46,19.90
2014,05,14,11,47,20.00
2014,05,14,11,48,20.00
2014,05,14,11,49,20.00
2014,05,14,11,50,19.90
2014,05,14,11,51,20.00
2014,05,14,11,52,20.00
2014,05,14,11,53,20.10
2014,05,14,11,54,20.10
2014,05,14,11,55,20.20
2014,05,14,11,56,20.40
2014,05,14,11,57,20.50
2014,05,14,11,58,20.60
2014,05,14,11,59,20.60
2014,05,14,12,00,20.60
2014,05,14,12,01,20.60
2014,05,14,12,02,20.60
2014,05,14,12,03,20.50
2014,05,14,12,04,20.50
2014,05,14,12,05,20.50
2014,05,14,12,06,20.50
2014,05,14,12,07,20.60
2014,05,14,12,08,20.70
2014,05,14,12,09,20.80
2014,05,14,12,10,20.80
2014,05,14,12,11,20.90
2014,05,14,12,12,20.90
2014,05,14,12,13,21.00
2014,05,14,12,14,21.00
2014,05,14,12,15,21.10
2014,05,14,12,16,21.10
2014,05,14,12,17,21.10
2014,05,14,12,18,21.10
2014,05,14,12,19,21.00
2014,05,14,12,20,21.00
2014,05,14,12,21,20.90
2014,05,14,12,22,20.90
2014,05,14,12,23,20.90
2014,05,14,12,24,21.00
2014,05,14,12,25,21.00
2014,05,14,12,26,21.10
2014,05,14,12,27,21.10
2014,05,14,12,28,21.20
2014,05,14,12,29,21.30
2014,05,14,12,30,21.40
2014,05,14,12,31,21.40
2014,05,14,12,32,21.50
2014,05,14,12,33,21.60
2014,05,14,12,34,21.70
2014,05,14,12,35,21.70
2014,05,14,12,36,21.70
2014,05,14,12,37,21.70
2014,05,14,12,38,21.70
2014,05,14,12,39,21.80
2014,05,14,12,40,21.80
2014,05,14,12,41,21.70
2014,05,14,12,42,21.70
2014,05,14,12,43,21.70
2014,05,14,12,44,21.70
2014,05,14,12,45,21.60
2014,05,14,12,46,21.60
2014,05,14,12,47,21.60
2014,05,14,12,48,21.60
2014,05,14,12,49,21.60
2014,05,14,12,50,21.60
2014,05,14,12,51,21.60
2014,05,14,12,52,21.70
2014,05,14,12,53,21.70
2014,05,14,12,54,21.60
2014,05,14,12,55,21.60
2014,05,14,12,56,21.50
2014,05,14,12,57,21.50
2014,05,14,12,58,21.40
2014,05,14,12,59,21.50
2014,05,14,13,00,21.50
2014,05,14,13,01,21.60
2014,05,14,13,02,21.80
2014,05,14,13,03,21.80
2014,05,14,13,04,21.90
2014,05,14,13,05,21.90
2014,05,14,13,06,22.00
2014,05,14,13,07,22.10
2014,05,14,13,08,22.20
2014,05,14,13,09,22.20
2014,05,14,13,10,22.20
2014,05,14,13,11,22.20
2014,05,14,13,12,22.30
2014,05,14,13,13,22.30
2014,05,14,13,14,22.30
2014,05,14,13,15,22.30
2014,05,14,13,16,22.20
2014,05,14,13,17,22.20
2014,05,14,13,18,22.20
2014,05,14,13,19,22.20
2014,05,14,13,20,22.20
2014,05,14,13,21,22.20
2014,05,14,13,22,22.20
2014,05,14,13,23,22.20
2014,05,14,13,24,22.20
2014,05,14,13,25,22.20
2014,05,14,13,26,22.20
2014,05,14,13,27,22.20
2014,05,14,13,28,22.30
2014,05,14,13,29,22.40
2014,05,14,13,30,22.50
2014,05,14,13,31,22.60
2014,05,14,13,32,22.70
2014,05,14,13,33,22.70
2014,05,14,13,34,22.80
2014,05,14,13,35,22.80
2014,05,14,13,36,22.90
2014,05,14,13,37,22.90
2014,05,14,13,38,23.00
2014,05,14,13,39,23.00
2014,05,14,13,40,23.00
2014,05,14,13,41,23.00
2014,05,14,13,42,23.10
2014,05,14,13,43,23.20
2014,05,14,13,44,23.20
2014,05,14,13,45,23.30
2014,05,14,13,46,23.40
2014,05,14,13,47,23.40
2014,05,14,13,48,23.50
2014,05,14,13,49,23.50
2014,05,14,13,50,23.50
2014,05,14,13,51,23.50
2014,05,14,13,52,23.50
2014,05,14,13,53,23.50
2014,05,14,13,54,23.40
2014,05,14,13,55,23.40
2014,05,14,13,56,23.40
2014,05,14,13,57,23.30
2014,05,14,13,58,23.10
2014,05,14,13,59,23.00
2014,05,14,14,00,22.90
2014,05,14,14,01,22.90
2014,05,14,14,02,22.80
2014,05,14,14,03,22.80
2014,05,14,14,04,22.80
2014,05,14,14,05,22.80
2014,05,14,14,06,22.80
2014,05,14,14,07,22.80
2014,05,14,14,08,22.90
2014,05,14,14,09,22.90
2014,05,14,14,10,22.90
2014,05,14,14,11,22.90
2014,05,14,14,12,22.90
2014,05,14,14,13,22.90
2014,05,14,14,14,22.90
2014,05,14,14,15,22.80
2014,05,14,14,16,22.80
2014,05,14,14,17,22.70
2014,05,14,14,18,22.80
2014,05,14,14,19,22.80
2014,05,14,14,20,22.90
2014,05,14,14,21,23.00
2014,05,14,14,22,23.10
2014,05,14,14,23,23.10
2014,05,14,14,24,23.10
2014,05,14,14,25,23.10
2014,05,14,14,26,23.10
2014,05,14,14,27,23.10
2014,05,14,14,28,23.10
2014,05,14,14,29,23.00
2014,05,14,14,30,22.90
2014,05,14,14,31,22.90
2014,05,14,14,32,22.90
2014,05,14,14,33,22.90
2014,05,14,14,34,22.80
2014,05,14,14,35,22.80
2014,05,14,14,36,22.80
2014,05,14,14,37,22.80
2014,05,14,14,38,22.90
2014,05,14,14,39,22.90
2014,05,14,14,40,23.00
2014,05,14,14,41,23.10
2014,05,14,14,42,23.10
2014,05,14,14,43,23.20
2014,05,14,14,44,23.20
2014,05,14,14,45,23.30
2014,05,14,14,46,23.30
2014,05,14,14,47,23.40
2014,05,14,14,48,23.40
2014,05,14,14,49,23.50
2014,05,14,14,50,23.60
2014,05,14,14,51,23.60
2014,05,14,14,52,23.70
2014,05,14,14,53,23.70
2014,05,14,14,54,23.80
2014,05,14,14,55,23.90
2014,05,14,14,56,23.90
2014,05,14,14,57,23.80
2014,05,14,14,58,23.80
2014,05,14,14,59,23.80
2014,05,14,15,00,23.80
2014,05,14,15,01,23.80
2014,05,14,15,02,23.90
2014,05,14,15,03,23.90
2014,05,14,15,04,23.90
2014,05,14,15,05,23.90
2014,05,14,15,06,23.80
2014,05,14,15,07,23.80
2014,05,14,15,08,23.80
2014,05,14,15,09,23.80
2014,05,14,15,10,23.90
2014,05,14,15,11,23.90
2014,05,14,15,12,24.00
2014,05,14,15,13,24.00
2014,05,14,15,14,24.10
2014,05,14,15,15,24.10
2014,05,14,15,16,24.10
2014,05,14,15,17,24.10
2014,05,14,15,18,24.10
2014,05,14,15,19,24.10
2014,05,14,15,20,24.10
2014,05,14,15,21,24.10
2014,05,14,15,22,24.20
2014,05,14,15,23,24.20
2014,05,14,15,24,24.20
2014,05,14,15,25,24.30
2014,05,14,15,26,24.40
2014,05,14,15,27,24.50
2014,05,14,15,28,24.50
2014,05,14,15,29,24.60
2014,05,14,15,30,24.60
2014,05,14,15,31,24.60
2014,05,14,15,32,24.70
2014,05,14,15,33,24.70
2014,05,14,15,34,24.80
2014,05,14,15,35,24.90
2014,05,14,15,36,25.00
2014,05,14,15,37,25.00
2014,05,14,15,38,25.10
2014,05,14,15,39,25.10
2014,05,14,15,40,25.10
2014,05,14,15,41,25.10
2014,05,14,15,42,25.10
2014,05,14,15,43,25.10
2014,05,14,15,44,25.10
2014,05,14,15,45,25.10
2014,05,14,15,46,25.10
2014,05,14,15,47,25.10
2014,05,14,15,48,25.10
2014,05,14,15,49,25.20
2014,05,14,15,50,25.20
2014,05,14,15,51,25.20
2014,05,14,15,52,25.20
2014,05,14,15,53,25.30
2014,05,14,15,54,25.30
2014,05,14,15,55,25.30
2014,05,14,15,56,25.30
2014,05,14,15,57,25.30
2014,05,14,15,58,25.30
2014,05,14,15,59,25.40
2014,05,14,16,00,25.40
2014,05,14,16,01,25.50
2014,05,14,16,02,25.50
2014,05,14,16,03,25.60
2014,05,14,16,04,25.60
2014,05,14,16,05,25.60
2014,05,14,16,06,25.70
2014,05,14,16,07,25.70
2014,05,14,16,08,25.70
2014,05,14,16,09,25.70
2014,05,14,16,10,25.70
2014,05,14,16,11,25.70
2014,05,14,16,12,25.70
2014,05,14,16,13,25.70
2014,05,14,16,14,25.70
2014,05,14,16,15,25.70
2014,05,14,16,16,25.60
2014,05,14,16,17,25.50
2014,05,14,16,18,25.40
2014,05,14,16,19,25.40
2014,05,14,16,20,25.40
2014,05,14,16,21,25.40
2014,05,14,16,22,25.30
2014,05,14,16,23,25.30
2014,05,14,16,24,25.30
2014,05,14,16,25,25.20
2014,05,14,16,26,25.20
2014,05,14,16,27,25.20
2014,05,14,16,28,25.20
2014,05,14,16,29,25.10
2014,05,14,16,30,25.10
2014,05,14,16,31,25.00
2014,05,14,16,32,25.00
2014,05,14,16,33,25.00
2014,05,14,16,34,25.00
2014,05,14,16,35,25.10
2014,05,14,16,36,25.10
2014,05,14,16,37,25.10
2014,05,14,16,38,25.20
2014,05,14,16,39,25.30
2014,05,14,16,40,25.30
2014,05,14,16,41,25.30
2014,05,14,16,42,25.30
2014,05,14,16,43,25.30
2014,05,14,16,44,25.30
2014,05,14,16,45,25.30
2014,05,14,16,46,25.30
2014,05,14,16,47,25.30
2014,05,14,16,48,25.30
2014,05,14,16,49,25.30
2014,05,14,16,50,25.30
2014,05,14,16,51,25.40
2014,05,14,16,52,25.40
2014,05,14,16,53,25.40
2014,05,14,16,54,25.40
2014,05,14,16,55,25.40
2014,05,14,16,56,25.30
2014,05,14,16,57,25.30
2014,05,14,16,58,25.30
2014,05,14,16,59,25.30
2014,05,14,17,00,25.30
2014,05,14,17,01,25.30
2014,05,14,17,02,25.40
2014,05,14,17,03,25.40
2014,05,14,17,04,25.50
2014,05,14,17,05,25.50
2014,05,14,17,06,25.50
2014,05,14,17,07,25.40
2014,05,14,17,08,25.40
2014,05,14,17,09,25.40
2014,05,14,17,10,25.30
2014,05,14,17,11,25.30
2014,05,14,17,12,25.30
2014,05,14,17,13,25.30
2014,05,14,17,14,25.30
2014,05,14,17,15,25.30
2014,05,14,17,16,25.30
2014,05,14,17,17,25.30
2014,05,14,17,18,25.30
2014,05,14,17,19,25.40